Location: Gugi
(45.4667°N, 11.1000°E)
Time: 15:54:56
(UTC+00:00)

NOSS 3-1 (C) - Pass Details

Date: 17 November 2019
Orbit: 765 x 1444 km, 63.4° (Epoch: 11 December)

Event Time Altitude Azimuth Distance (km) Brightness Sun altitude
Rises 16:38:16 0° 215° (SW) 3,276 7.2 -9.7°
Reaches altitude 10° 16:40:32 10° 216° (SW) 2,394 6.4 -10.1°
Maximum altitude 16:46:02 88° 129° (SE) 892 3.3 -11.0°
Drops below altitude 10° 16:52:26 10° 39° (NE) 2,776 5.4 -12.1°
Enters shadow 16:52:52 - 39° (NE) 2,936 5.5 -12.1°
